Total_Precipitation_Accumulation
0.02 0.02 0.01 0.00 0.02 0.04 0.09 0.20 0.30 0.40 0.49 0.59 0.52 0.50 0.49 0.52 0.50 0.47 0.46 0.42 0.44 0.51 0.66 0.60 0.67 0.70 0.60 0.53 0.50 0.49 0.47 0.42 0.52 0.48 0.29 0.12 0.06 0.04 0.03 0.04 0.04 0.03 0.02
0.03 0.03 0.03 0.02 0.03 0.06 0.09 0.14 0.21 0.28 0.38 0.52 0.59 0.63 0.76 0.87 0.89 0.84 0.72 0.60 0.62 0.63 0.65 0.66 0.66 0.64 0.61 0.53 0.48 0.50 0.48 0.40 0.48 0.49 0.40 0.22 0.10 0.04 0.02 0.02 0.03 0.04 0.05
0.04 0.02 0.02 0.02 0.02 0.09 0.15 0.15 0.15 0.18 0.25 0.28 0.33 0.50 0.77 0.95 1.06 1.11 1.02 0.92 0.89 0.87 0.85 0.80 0.73 0.66 0.64 0.60 0.53 0.53 0.51 0.42 0.40 0.44 0.51 0.41 0.26 0.16 0.07 0.09 0.14 0.18 0.19
0.01 0.00 0.00 0.01 0.02 0.03 0.03 0.03 0.03 0.07 0.13 0.15 0.17 0.26 0.51 0.82 1.07 1.24 1.26 1.23 1.16 1.06 0.96 0.85 0.71 0.60 0.56 0.57 0.51 0.50 0.52 0.50 0.42 0.40 0.44 0.47 0.45 0.40 0.19 0.09 0.14 0.27 0.29
0.00 0.00 0.00 0.00 0.00 0.00 0.00 0.00 0.00 0.02 0.05 0.07 0.08 0.09 0.18 0.29 0.36 0.46 0.57 0.68 0.75 0.76 0.70 0.64 0.59 0.51 0.46 0.44 0.48 0.53 0.55 0.52 0.46 0.41 0.39 0.41 0.44 0.43 0.37 0.22 0.23 0.29 0.27
0.00 0.00 0.00 0.00 0.00 0.00 0.00 0.00 0.00 0.01 0.01 0.02 0.03 0.05 0.11 0.21 0.27 0.30 0.32 0.34 0.37 0.39 0.37 0.37 0.39 0.38 0.38 0.38 0.39 0.44 0.47 0.47 0.47 0.47 0.47 0.48 0.50 0.53 0.55 0.46 0.44 0.40 0.32
0.00 0.00 0.00 0.00 0.00 0.00 0.00 0.00 0.00 0.00 0.01 0.02 0.04 0.07 0.14 0.19 0.19 0.20 0.21 0.21 0.22 0.24 0.25 0.27 0.30 0.31 0.33 0.38 0.44 0.45 0.45 0.48 0.49 0.48 0.52 0.57 0.60 0.60 0.61 0.56 0.52 0.44 0.39
0.00 0.00 0.00 0.00 0.00 0.00 0.00 0.00 0.00 0.01 0.03 0.08 0.14 0.25 0.39 0.46 0.42 0.34 0.27 0.25 0.27 0.29 0.31 0.35 0.37 0.37 0.36 0.35 0.41 0.44 0.46 0.50 0.51 0.50 0.53 0.55 0.56 0.55 0.59 0.58 0.51 0.43 0.44
0.00 0.00 0.00 0.00 0.00 0.00 0.00 0.01 0.01 0.04 0.11 0.18 0.24 0.28 0.30 0.34 0.33 0.30 0.29 0.29 0.33 0.33 0.36 0.42 0.47 0.50 0.50 0.49 0.50 0.48 0.52 0.58 0.62 0.60 0.57 0.54 0.50 0.46 0.47 0.47 0.43 0.35 0.30
0.00 0.00 0.00 0.00 0.00 0.01 0.02 0.05 0.05 0.12 0.25 0.38 0.44 0.34 0.24 0.20 0.24 0.32 0.34 0.35 0.37 0.38 0.43 0.47 0.48 0.52 0.53 0.54 0.55 0.59 0.65 0.72 0.67 0.61 0.61 0.57 0.52 0.44 0.39 0.32 0.30 0.26 0.21
0.00 0.00 0.00 0.00 0.01 0.02 0.06 0.17 0.22 0.29 0.41 0.56 0.64 0.54 0.36 0.27 0.26 0.28 0.26 0.26 0.32 0.41 0.47 0.43 0.38 0.35 0.38 0.45 0.53 0.60 0.64 0.66 0.60 0.57 0.50 0.41 0.34 0.29 0.20 0.16 0.15 0.14 0.13
0.00 0.00 0.00 0.00 0.00 0.02 0.12 0.36 0.61 0.87 0.94 1.01 1.10 0.95 0.57 0.34 0.25 0.19 0.17 0.22 0.32 0.41 0.44 0.39 0.34 0.33 0.38 0.45 0.53 0.62 0.69 0.66 0.59 0.50 0.38 0.26 0.18 0.12 0.07 0.06 0.04 0.05 0.08
0.00 0.00 0.00 0.00 0.00 0.01 0.07 0.22 0.30 0.54 0.76 0.92 1.03 0.82 0.44 0.24 0.16 0.13 0.17 0.28 0.37 0.40 0.39 0.38 0.40 0.49 0.55 0.61 0.67 0.63 0.59 0.51 0.40 0.32 0.24 0.12 0.05 0.04 0.02 0.01 0.02 0.02 0.04
0.00 0.00 0.00 0.00 0.00 0.00 0.02 0.12 0.17 0.18 0.27 0.51 0.65 0.52 0.28 0.17 0.12 0.12 0.16 0.20 0.20 0.23 0.31 0.42 0.56 0.64 0.66 0.65 0.64 0.53 0.41 0.32 0.22 0.15 0.08 0.03 0.01 0.01 0.01 0.01 0.01 0.01 0.05
0.00 0.00 0.00 0.00 0.00 0.01 0.02 0.09 0.13 0.13 0.20 0.39 0.50 0.39 0.22 0.13 0.06 0.03 0.04 0.07 0.13 0.18 0.27 0.39 0.46 0.43 0.42 0.47 0.43 0.32 0.23 0.15 0.09 0.05 0.01 0.00 0.00 0.00 0.00 0.00 0.01 0.01 0.02
0.00 0.00 0.00 0.00 0.00 0.02 0.02 0.03 0.06 0.11 0.19 0.34 0.45 0.39 0.27 0.14 0.05 0.02 0.01 0.04 0.08 0.10 0.16 0.21 0.20 0.16 0.14 0.16 0.15 0.10 0.06 0.04 0.02 0.00 0.00 0.00 0.00 0.00 0.00 0.00 0.00 0.00 0.01
0.00 0.00 0.00 0.00 0.01 0.02 0.04 0.05 0.05 0.08 0.19 0.33 0.41 0.39 0.32 0.19 0.11 0.04 0.03 0.04 0.04 0.05 0.07 0.05 0.04 0.05 0.04 0.03 0.02 0.01 0.01 0.01 0.00 0.00 0.00 0.00 0.00 0.00 0.00 0.00 0.00 0.00 0.00
0.00 0.00 0.00 0.01 0.01 0.01 0.03 0.04 0.05 0.08 0.16 0.26 0.35 0.39 0.33 0.26 0.23 0.12 0.07 0.04 0.04 0.06 0.09 0.05 0.02 0.01 0.01 0.01 0.00 0.00 0.00 0.00 0.00 0.00 0.00 0.00 0.00 0.00 0.00 0.00 0.00 0.00 0.00
0.01 0.01 0.01 0.02 0.02 0.02 0.02 0.03 0.04 0.07 0.12 0.18 0.29 0.34 0.29 0.24 0.21 0.16 0.10 0.07 0.09 0.08 0.07 0.05 0.02 0.00 0.00 0.00 0.00 0.00 0.01 0.00 0.00 0.00 0.00 0.00 0.00 0.00 0.00 0.00 0.00 0.00 0.00
0.01 0.01 0.01 0.01 0.02 0.02 0.03 0.04 0.05 0.09 0.16 0.18 0.24 0.32 0.33 0.31 0.27 0.21 0.11 0.08 0.11 0.10 0.06 0.03 0.02 0.00 0.00 0.00 0.00 0.00 0.01 0.02 0.01 0.00 0.00 0.00 0.00 0.00 0.00 0.00 0.01 0.00 0.00
0.01 0.02 0.02 0.02 0.03 0.04 0.05 0.08 0.10 0.15 0.17 0.18 0.20 0.26 0.34 0.34 0.32 0.27 0.17 0.10 0.09 0.09 0.09 0.06 0.05 0.03 0.00 0.00 0.00 0.00 0.02 0.02 0.01 0.00 0.00 0.00 0.00 0.00 0.00 0.00 0.00 0.00 0.00
0.01 0.02 0.03 0.03 0.04 0.06 0.11 0.16 0.20 0.22 0.21 0.22 0.24 0.28 0.31 0.21 0.19 0.25 0.23 0.17 0.12 0.12 0.11 0.08 0.05 0.02 0.00 0.00 0.00 0.00 0.00 0.00 0.00 0.00 0.00 0.00 0.00 0.00 0.00 0.00 0.00 0.00 0.00
0.03 0.04 0.05 0.07 0.09 0.15 0.24 0.32 0.33 0.31 0.28 0.28 0.29 0.30 0.30 0.27 0.28 0.25 0.22 0.18 0.13 0.11 0.08 0.05 0.03 0.01 0.00 0.00 0.00 0.00 0.00 0.00 0.00 0.00 0.00 0.00 0.00 0.00 0.00 0.00 0.00 0.00 0.00
0.03 0.04 0.08 0.14 0.21 0.30 0.40 0.44 0.42 0.38 0.32 0.29 0.29 0.29 0.30 0.29 0.27 0.25 0.21 0.17 0.12 0.10 0.08 0.06 0.03 0.02 0.00 0.00 0.00 0.00 0.00 0.00 0.00 0.00 0.00 0.00 0.00 0.00 0.00 0.00 0.00 0.00 0.00
0.04 0.07 0.11 0.18 0.26 0.38 0.48 0.47 0.44 0.42 0.38 0.33 0.32 0.29 0.27 0.26 0.23 0.20 0.20 0.21 0.20 0.13 0.12 0.09 0.05 0.03 0.01 0.00 0.00 0.00 0.00 0.00 0.00 0.00 0.00 0.00 0.00 0.00 0.00 0.00 0.00 0.00 0.00
0.05 0.09 0.14 0.19 0.22 0.32 0.46 0.49 0.50 0.48 0.44 0.40 0.35 0.29 0.24 0.23 0.19 0.16 0.09 0.06 0.08 0.03 0.03 0.04 0.03 0.01 0.00 0.00 0.00 0.00 0.00 0.00 0.00 0.00 0.00 0.00 0.00 0.00 0.00 0.00 0.00 0.00 0.00